Location: Eaton
(41.3139°N, 82.0207°W)
Time: 17:03:38
(UTC+00:00)

Cosmos 1741 Rocket - Pass Details

Date: 17 June 2021
Orbit: 761 x 783 km, 74.0° (Epoch: 01 August)

Event Time Altitude Azimuth Distance (km) Brightness Sun altitude
Rises 02:37:44 0° 343° (NNW) 3,245 8.6 -14.1°
Reaches altitude 10° 02:40:08 10° 346° (NNW) 2,317 7.6 -14.4°
Maximum altitude 02:45:22 67° 69° (ENE) 837 4.1 -15.0°
Enters shadow 02:48:32 24° 146° (SE) 1,550 5.0 -15.4°
